WetterOnline ( https://www.wetteronline.de )

Wetter aktuell Dvur Kralove nad Labem

Aktuelles Wetter: Pardubice (230m)

6-stündlich | Neueste Meldungen
Ortszeit Temperatur Wetter
Mi, 08.07. 8:00 15.8° C leicht bewölkt
Mi, 08.07. 2:00 12.9° C leicht bewölkt
Di, 07.07. 20:00 18.1° C leicht bewölkt
Di, 07.07. 14:00 17.3° C bewölkt
Di, 07.07. 8:00 13.6° C leicht bewölkt
Di, 07.07. 2:00 13.9° C leicht bewölkt
Mo, 06.07. 20:00 19.8° C leicht bewölkt
Mo, 06.07. 14:00 18.3° C bewölkt
Ortszeit Temperatur Wetter
Mi, 08.07. 12:30 18° C leichter Regen
Mi, 08.07. 12:03 18° C leichter Regen
Mi, 08.07. 12:00 18.2° C bedeckt
Mi, 08.07. 11:30 18° C -
Mi, 08.07. 11:00 17.7° C wolkig
Mi, 08.07. 10:30 17° C -
Mi, 08.07. 10:00 16.9° C wolkig
Mi, 08.07. 9:30 17° C -
Mi, 08.07. 9:00 16.8° C leicht bewölkt
Ortszeit Relative Feuchte Sichtweite
Mi, 08.07. 8:00 62% 20 km
Mi, 08.07. 2:00 81% 20 km
Di, 07.07. 20:00 49% 20 km
Di, 07.07. 14:00 53% 20 km
Di, 07.07. 8:00 70% 20 km
Di, 07.07. 2:00 64% 20 km
Mo, 06.07. 20:00 42% 20 km
Mo, 06.07. 14:00 85% 20 km
Ortszeit Relative Feuchte Sichtweite
Mi, 08.07. 12:30 60% >10 km
Mi, 08.07. 12:03 56% >10 km
Mi, 08.07. 12:00 56% 20 km
Mi, 08.07. 11:30 56% >10 km
Mi, 08.07. 11:00 53% 20 km
Mi, 08.07. 10:30 59% >10 km
Mi, 08.07. 10:00 63% 20 km
Mi, 08.07. 9:30 63% >10 km
Mi, 08.07. 9:00 63% 20 km
Ortszeit Niederschlagsmenge Niederschlagsart
Mi, 08.07. 8:00 0.0 l/m2 in 12 Std. -
Mi, 08.07. 2:00 0.0 l/m2 in 6 Std. -
Di, 07.07. 20:00 0.0 l/m2 in 12 Std. -
Di, 07.07. 14:00 0.0 l/m2 in 6 Std. -
Di, 07.07. 8:00 0.0 l/m2 in 12 Std. -
Di, 07.07. 2:00 0.0 l/m2 in 6 Std. -
Mo, 06.07. 20:00 0.7 l/m2 in 12 Std. -
Mo, 06.07. 14:00 0.7 l/m2 in 6 Std. Schauer
Ortszeit Niederschlagsmenge Niederschlagsart
Mi, 08.07. 12:30 keine Meldung -
Mi, 08.07. 12:03 keine Meldung -
Mi, 08.07. 12:00 0.0 l/m2 in 1 Std. -
Mi, 08.07. 11:30 keine Meldung -
Mi, 08.07. 11:00 0.0 l/m2 in 1 Std. -
Mi, 08.07. 10:30 keine Meldung -
Mi, 08.07. 10:00 0.0 l/m2 in 1 Std. -
Mi, 08.07. 9:30 keine Meldung -
Mi, 08.07. 9:00 0.0 l/m2 in 1 Std. -
Ortszeit Stärke Spitze Richtung
km/h Bft. km/h Grad Sektor
Mi, 08.07. 8:00 14 3 - 270° W
Mi, 08.07. 2:00 0 0 - - -
Di, 07.07. 20:00 7 2 - 260° W
Di, 07.07. 14:00 18 3 - 270° W
Di, 07.07. 8:00 22 4 - 290° W
Di, 07.07. 2:00 14 3 - 280° W
Mo, 06.07. 20:00 11 2 - 320° NW
Mo, 06.07. 14:00 11 2 47 230° SW
Ortszeit Stärke Spitze Richtung
km/h Bft. km/h Grad Sektor
Mi, 08.07. 12:30 4 1 - uml. uml.
Mi, 08.07. 12:03 2 1 - 20° N
Mi, 08.07. 12:00 4 1 - 230° SW
Mi, 08.07. 11:30 6 1 - 260° W
Mi, 08.07. 11:00 7 2 - 280° W
Mi, 08.07. 10:30 6 1 - 250° W
Mi, 08.07. 10:00 7 2 - 270° W
Mi, 08.07. 9:30 11 2 - 270° W
Mi, 08.07. 9:00 11 2 - 260° W
Ortszeit Untergrenze Bedeckung Gattung
total tief tief mittel hoch
Mi, 08.07. 8:00 4200 m 6/8 5/8 - Ac Ci
Mi, 08.07. 2:00 2400 m 7/8 7/8 - Ac -
Di, 07.07. 20:00 1500 m 3/8 1/8 Cu Ac -
Di, 07.07. 14:00 1110 m 7/8 4/8 Cu Ac -
Di, 07.07. 8:00 600 m 3/8 3/8 Cu - -
Di, 07.07. 2:00 2400 m 6/8 6/8 - Ac -
Mo, 06.07. 20:00 1500 m 4/8 2/8 Cu Ac -
Mo, 06.07. 14:00 990 m 7/8 5/8 Cu Ac -
Ortszeit Bedeckungsgrad in Achtel und Wolkenuntergrenze
Mi, 08.07. 12:30 1-2(960m) 8(1800m)
Mi, 08.07. 12:03 1-2(1140m) 8(1800m)
Mi, 08.07. 12:00 1(1110m) 8(1800m)
Mi, 08.07. 11:30 keine Wolken(unter 1500 m)
Mi, 08.07. 11:00 6(2100m) 7(3000m)
Mi, 08.07. 10:30 keine Wolken(unter 1500 m)
Mi, 08.07. 10:00 6(2700m) 7(3900m)
Mi, 08.07. 9:30 keine Wolken(unter 1500 m)
Mi, 08.07. 9:00 3(3900m) 4(4200m) 5(5700m)
Ortszeit Luftdruck NN (hPa) Tendenz (hPa in 3 Std.)
Mi, 08.07. 8:00 1017 + 0,3
Mi, 08.07. 2:00 1017 - 0,7
Di, 07.07. 20:00 1018 - 0,8
Di, 07.07. 14:00 1019 - 0,3
Di, 07.07. 8:00 1020 + 1,3
Di, 07.07. 2:00 1018 + 1,7
Mo, 06.07. 20:00 1012 + 1,8
Mo, 06.07. 14:00 1011 + 0,9
Ortszeit Luftdruck NN (hPa) Tendenz (hPa in 3 Std.)
Mi, 08.07. 12:30 1016 keine Meldung
Mi, 08.07. 12:03 1016 keine Meldung
Mi, 08.07. 12:00 1016 - 0,4
Mi, 08.07. 11:30 1016 keine Meldung
Mi, 08.07. 11:00 1016 - 0,1
Mi, 08.07. 10:30 1016 keine Meldung
Mi, 08.07. 10:00 1017 + 0,6
Mi, 08.07. 9:30 1017 keine Meldung
Mi, 08.07. 9:00 1017 + 0,3
Ortszeit Schneehöhe (cm)
Mi, 08.07. 8:00 -
Mi, 08.07. 2:00 -
Di, 07.07. 20:00 -
Di, 07.07. 14:00 -
Di, 07.07. 8:00 -
Di, 07.07. 2:00 -
Mo, 06.07. 20:00 -
Mo, 06.07. 14:00 -
Ortszeit Schneehöhe (cm)
Mi, 08.07. 12:30 -
Mi, 08.07. 12:03 -
Mi, 08.07. 12:00 -
Mi, 08.07. 11:30 -
Mi, 08.07. 11:00 -
Mi, 08.07. 10:30 -
Mi, 08.07. 10:00 -
Mi, 08.07. 9:30 -
Mi, 08.07. 9:00 -
Link zu dieser Seite / Seite empfehlen

Das Wetter in ...